Tracking 29892 objects as of 21-Nov-2024
HD Live streaming from Space Station
objects crossing your sky now

COSMOS 1275 DEB

Track COSMOS 1275 DEB now!
10-day predictions


NORAD ID: 42179
Int'l Code: 1981-053ST
Perigee: 917.8 km
Apogee: 1,060.3 km
Inclination: 83.1 °
Period: 104.7 minutes
Semi major axis: 7360 km
RCS: Unknown
Launch date: June 4, 1981
Source: Commonwealth of Independent States (former USSR) (CIS)
Launch site: PLESETSK MISSILE AND SPACE COMPLEX (PKMTR)

Note: This is SATELLITE DEBRIS
Your satellite tracking list
Your tracking list is empty




NASA's NSSDC Master Catalog

Two Line Element Set (TLE):
1 42179U 81053ST  24318.06988209  .00002193  00000-0  22085-2 0  9994
2 42179  83.1282  82.1438 0096741 126.2420 234.7726 13.74934316974348
Source of the keplerian elements: AFSPC